Regional Weather Roundup
Issued by NWS

Home | Current Version | Previous Version | Text Only | Print | Product List | Glossary On
Versions: 1 2 3 4 5 6 7 8 9 10 11 12 13 14 15 16 17 18 19 20 21 22 23 24 25 26 27 28 29 30 31 32 33 34 35 36 37 38 39 40 41 42 43 44 45 46 47 48 49 50
000
ASUS44 KBMX 301710
RWRAL

ALABAMA REGIONAL WEATHER ROUNDUP
NATIONAL WEATHER SERVICE BIRMINGHAM AL
1200 PM CDT TUE SEP 30 2014

NOTE: "FAIR" INDICATES FEW OR NO CLOUDS BELOW 12,000 FEET
WITH NO SIGNIFICANT WEATHER AND/OR OBSTRUCTIONS TO VISIBILITY.

THE REMARK "TC" DENOTES TEMPERATURE IN DEGREES CELSIUS.

ALZ001>011-014-016>018-020-301800-
NORTH ALABAMA

CITY           SKY/WX    TMP DP  RH WIND       PRES   REMARKS
MUSCLE SHOALS  SUNNY     85  62  46 VRB5      29.97F
HUNTSVILLE     MOSUNNY   78  64  61 CALM      29.97F
DECATUR        SUNNY     77  64  64 VRB5      29.97F
HALEYVILLE     FAIR      81  63  54 CALM      29.99F
GADSDEN        PTSUNNY   73  61  64 CALM      29.98S
$$

ALZ012-013-022-023-030>036-040>044-301800-
WEST CENTRAL ALABAMA

CITY           SKY/WX    TMP DP  RH WIND       PRES   REMARKS
TUSCALOOSA     SUNNY     83  63  50 VRB5      29.95F
$$

ALZ015-024>027-033>036-040>044-301800-
CENTRAL ALABAMA

CITY           SKY/WX    TMP DP  RH WIND       PRES   REMARKS
BIRMINGHAM     MOSUNNY   75  63  66 E6        29.99F
MONTGOMERY     CLOUDY    78  65  63 CALM      29.95F
SHELBY CO ARPT MOSUNNY   77  64  64 VRB5      29.97F
MAXWELL AFB    CLOUDY    80  65  62 VRB3      29.94F
GREENVILLE     CLOUDY    75  65  70 E5        29.94F
$$

ALZ019-021-028-029-037-038-045>048-301800-
EAST CENTRAL ALABAMA

CITY           SKY/WX    TMP DP  RH WIND       PRES   REMARKS
ANNISTON       MOSUNNY   77  63  61 E7        29.96F
ALEXANDER CITY PTSUNNY   76  64  66 E5        29.96S
AUBURN         CLOUDY    73  63  68 E5        29.99S
$$

ALZ051>064-301800-
SOUTHWEST ALABAMA

CITY           SKY/WX    TMP DP  RH WIND       PRES   REMARKS
MOBILE         CLOUDY    76  70  82 N7        29.94S HAZE
BROOKLEY FIELD CLOUDY    78  70  76 NE6       29.94F
EVERGREEN      CLOUDY    75  68  78 NE6       29.95S
$$

ALZ049-050-065>069-301800-
SOUTHEAST ALABAMA

CITY           SKY/WX    TMP DP  RH WIND       PRES   REMARKS
DOTHAN         CLOUDY    73  66  78 E7        29.97S
OZARK          CLOUDY    74  65  74 NE7       29.93F
TROY           CLOUDY    76  66  71 NE8       29.95S
EUFAULA        CLOUDY    76  65  68 NE6       29.93S
$$


USA.gov is the U.S. government's official web portal to all federal, state and local government web resources and services.